Location: Bremen
(53.0793°N, 8.8017°E)
Time: 23:46:05
(UTC+02:00)

Altair - Pass Details

Date: 19 April 2024
Orbit: 1501 x 1682 km, 47.2° (Epoch: 19 May)

Event Time Altitude Azimuth Distance (km) Brightness Sun altitude
Rises 21:55:18 0° 243° (WSW) 4,904 10.5 -11.6°
Reaches altitude 10° 21:58:33 10° 240° (WSW) 3,902 9.9 -12.0°
Maximum altitude 22:08:12 57° 165° (SSE) 1,851 7.6 -13.1°
Drops below altitude 10° 22:17:30 10° 91° (E) 3,772 9.1 -14.1°
Enters shadow 22:20:06 - 88° (E) 4,583 9.6 -14.4°
Sets 22:20:35 0° 87° (E) 4,734 - -14.5°
